Location: Unspecified
(0.0000°N, 0.0000°E)
Time: 13:45:48
(UTC+00:00)

Vanguard 1 Rocket - Pass Details

Date: 20 November 2019
Orbit: 650 x 4226 km, 34.3° (Epoch: 08 December)

Event Time Altitude Azimuth Distance (km) Brightness Sun altitude
Rises 23:07:42 0° 240° (WSW) 6,686 12.1 -68.1°
Reaches altitude 10° 23:13:03 10° 243° (WSW) 5,074 11.3 -68.7°
Enters shadow 23:14:55 14° 245° (WSW) 4,490 11.0 -68.8°
